This demonstration page uses our WeatherBlox Daily Observations layout. Learn more.

Left ArrowRight Arrow

36.17497, -115.13722

Hourly Observations for December 28, 2018

Temp ( °F °C ) Dew Point ( °F °C ) Humidity (%) Winds ( mph kmh ) Pressure ( in mb ) Visibility ( mi km ) Precip ( " mm )
12:53 am 00:53 Clear 42 5.6 13 -10.6 30 30 NNW 18 30 30.02 1017 10 16.0934 0 0
1:53 am 01:53 Clear 41 5 13 -10.6 32 32 NNW 14 22 30.04 1017 10 16.0934 0 0
2:53 am 02:53 Cloudy 41 5 13 -10.6 32 32 NNW 23 37 30.04 1017 10 16.0934 0 0
3:53 am 03:53 Clear 40 4.4 13 -10.6 33 33 NNW 17 28 30.04 1017 10 16.0934 0 0
4:53 am 04:53 Clear 40 4.4 13 -10.6 33 33 NNW 21 33 30.06 1018 10 16.0934 0 0
5:53 am 05:53 Clear 39 3.9 12 -11.1 33 33 NNW 18 30 30.09 1019 10 16.0934 0 0
6:53 am 06:53 Sunny 39 3.9 11 -11.7 31 31 NNW 20 31 30.11 1020 10 16.0934 0 0
7:53 am 07:53 Sunny 40 4.4 11 -11.7 30 30 NNW 20 31 30.14 1021 10 16.0934 0 0
8:53 am 08:53 Sunny 42 5.6 11 -11.7 28 28 NNW 25 41 30.15 1021 10 16.0934 0 0
9:53 am 09:53 Sunny 44 6.7 12 -11.1 27 27 NNW 24 39 30.15 1021 10 16.0934 0 0
10:53 am 10:53 Mostly Sunny 45 7.2 12 -11.1 26 26 NNW 30 48 30.13 1020 10 16.0934 0 0
11:53 am 11:53 Mostly Cloudy 47 8.3 11 -11.7 23 23 NW 26 43 30.12 1020 10 16.0934 0 0
12:53 pm 12:53 Mostly Cloudy 48 8.9 10 -12.2 21 21 NNW 22 35 30.12 1020 10 16.0934 0 0
1:53 pm 13:53 Cloudy 48 8.9 10 -12.2 21 21 N 22 35 30.13 1020 10 16.0934 0 0
2:53 pm 14:53 Cloudy 48 8.9 9 -12.8 20 20 N 12 19 30.16 1021 10 16.0934 0 0
3:53 pm 15:53 Mostly Cloudy 48 8.9 10 -12.2 21 21 N 13 20 30.18 1022 10 16.0934 0 0
4:53 pm 16:53 Mostly Cloudy 46 7.8 10 -12.2 23 23 N 10 17 30.2 1023 10 16.0934 0 0
5:53 pm 17:53 Partly Cloudy 45 7.2 10 -12.2 24 24 NNE 7 11 30.23 1024 10 16.0934 0 0
6:53 pm 18:53 Clear 43 6.1 10 -12.2 26 26 ENE 8 13 30.25 1025 10 16.0934 0 0
7:53 pm 19:53 Clear 42 5.6 12 -11.1 29 29 NNE 12 19 30.28 1026 10 16.0934 0 0
8:53 pm 20:53 Clear 41 5 13 -10.6 32 32 N 17 28 30.31 1027 10 16.0934 0 0
9:53 pm 21:53 Clear 41 5 13 -10.6 32 32 N 10 17 30.33 1027 10 16.0934 0 0
10:53 pm 22:53 Clear 40 4.4 13 -10.6 33 33 N 15 24 30.34 1028 10 16.0934 0 0
11:53 pm 23:53 Clear 39 3.9 12 -11.1 33 33 N 15 24 30.35 1028 10 16.0934 0 0

Powered by AerisWeather